Total_Precipitation_Accumulation
0.01 0.01 0.00 0.01 0.02 0.02 0.04 0.08 0.17 0.22 0.32 0.36 0.48 0.61 0.64 0.58 0.63 0.84 0.97 1.23 1.73 2.07 2.36 2.15 1.84 1.82 1.63 1.50 1.33 1.39 1.51 1.56 1.42 1.30 1.12 0.90 0.76 0.75 0.77 0.59 0.47 0.33 0.39
0.00 0.01 0.01 0.02 0.02 0.04 0.07 0.14 0.19 0.23 0.29 0.41 0.49 0.50 0.54 0.61 0.72 0.65 0.62 0.71 0.93 1.01 1.15 1.19 1.26 1.26 1.17 1.18 1.29 1.37 1.40 1.51 1.79 1.75 1.40 1.09 0.94 0.81 0.75 0.71 0.57 0.46 0.38
0.00 0.01 0.02 0.03 0.04 0.06 0.11 0.13 0.16 0.18 0.21 0.22 0.22 0.24 0.36 0.50 0.60 0.60 0.60 0.59 0.63 0.62 0.58 0.56 0.49 0.47 0.55 0.63 0.72 0.78 0.99 1.11 1.15 1.18 1.25 1.08 0.98 0.90 0.82 0.75 0.68 0.61 0.52
0.01 0.01 0.03 0.05 0.06 0.09 0.14 0.17 0.18 0.17 0.13 0.10 0.08 0.14 0.22 0.28 0.27 0.17 0.14 0.18 0.25 0.29 0.26 0.29 0.29 0.28 0.31 0.28 0.36 0.47 0.60 0.65 0.68 0.65 0.70 0.74 0.73 0.72 0.69 0.72 0.69 0.69 0.72
0.01 0.02 0.05 0.07 0.09 0.10 0.10 0.10 0.10 0.07 0.08 0.07 0.05 0.07 0.13 0.21 0.27 0.29 0.29 0.21 0.14 0.14 0.12 0.11 0.11 0.11 0.12 0.10 0.11 0.14 0.22 0.36 0.41 0.51 0.59 0.58 0.60 0.61 0.60 0.57 0.60 0.60 0.55
0.01 0.03 0.04 0.06 0.08 0.08 0.10 0.14 0.10 0.04 0.03 0.04 0.05 0.06 0.08 0.10 0.09 0.11 0.13 0.13 0.12 0.10 0.07 0.06 0.05 0.04 0.04 0.02 0.01 0.04 0.09 0.13 0.16 0.20 0.30 0.37 0.43 0.50 0.55 0.54 0.54 0.53 0.53
0.01 0.03 0.03 0.06 0.06 0.08 0.09 0.05 0.03 0.02 0.01 0.01 0.01 0.01 0.01 0.04 0.03 0.04 0.04 0.03 0.02 0.02 0.01 0.01 0.03 0.02 0.02 0.01 0.00 0.00 0.02 0.06 0.08 0.10 0.11 0.13 0.13 0.13 0.15 0.17 0.21 0.30 0.39
0.01 0.03 0.03 0.04 0.05 0.05 0.03 0.03 0.01 0.00 0.00 0.00 0.00 0.00 0.00 0.02 0.02 0.01 0.01 0.00 0.00 0.00 0.01 0.00 0.00 0.00 0.00 0.00 0.00 0.00 0.00 0.01 0.02 0.04 0.05 0.07 0.08 0.08 0.07 0.07 0.08 0.09 0.09
0.02 0.03 0.03 0.02 0.02 0.02 0.01 0.00 0.00 0.00 0.00 0.00 0.00 0.00 0.00 0.01 0.02 0.01 0.00 0.00 0.00 0.00 0.00 0.01 0.00 0.01 0.02 0.00 0.00 0.00 0.00 0.00 0.00 0.00 0.01 0.01 0.02 0.03 0.03 0.03 0.04 0.04 0.06
0.03 0.03 0.02 0.01 0.01 0.01 0.00 0.00 0.00 0.00 0.00 0.00 0.00 0.00 0.00 0.00 0.01 0.02 0.01 0.00 0.00 0.00 0.00 0.00 0.01 0.02 0.02 0.01 0.00 0.00 0.00 0.00 0.00 0.00 0.00 0.00 0.00 0.00 0.00 0.01 0.02 0.04 0.05
0.02 0.02 0.01 0.00 0.00 0.00 0.00 0.00 0.00 0.00 0.00 0.00 0.00 0.00 0.00 0.00 0.01 0.02 0.02 0.01 0.01 0.00 0.00 0.01 0.01 0.02 0.02 0.02 0.01 0.01 0.01 0.00 0.00 0.00 0.00 0.00 0.00 0.00 0.00 0.00 0.00 0.01 0.04
0.00 0.00 0.00 0.00 0.00 0.00 0.00 0.00 0.00 0.00 0.00 0.00 0.00 0.00 0.00 0.00 0.00 0.01 0.01 0.02 0.01 0.00 0.02 0.03 0.02 0.02 0.02 0.02 0.01 0.01 0.00 0.00 0.00 0.00 0.00 0.00 0.00 0.00 0.00 0.00 0.00 0.00 0.00
0.00 0.00 0.00 0.00 0.00 0.00 0.00 0.00 0.00 0.00 0.00 0.00 0.00 0.00 0.00 0.00 0.00 0.00 0.00 0.01 0.01 0.01 0.03 0.03 0.02 0.01 0.01 0.01 0.01 0.01 0.00 0.01 0.01 0.02 0.02 0.01 0.00 0.00 0.00 0.00 0.00 0.00 0.00
0.00 0.00 0.00 0.00 0.00 0.00 0.00 0.00 0.00 0.00 0.00 0.00 0.01 0.01 0.00 0.00 0.01 0.01 0.01 0.01 0.01 0.01 0.02 0.01 0.01 0.01 0.01 0.01 0.01 0.01 0.01 0.01 0.01 0.03 0.02 0.01 0.00 0.00 0.00 0.00 0.00 0.00 0.00
0.00 0.00 0.00 0.00 0.00 0.00 0.00 0.00 0.00 0.00 0.00 0.00 0.01 0.01 0.01 0.03 0.04 0.03 0.02 0.03 0.03 0.01 0.01 0.01 0.01 0.01 0.01 0.01 0.01 0.01 0.00 0.00 0.01 0.02 0.02 0.02 0.01 0.01 0.00 0.00 0.00 0.00 0.01
0.00 0.00 0.00 0.00 0.00 0.00 0.00 0.00 0.00 0.00 0.00 0.00 0.00 0.00 0.00 0.01 0.01 0.01 0.00 0.01 0.01 0.00 0.01 0.02 0.02 0.03 0.03 0.02 0.02 0.02 0.01 0.02 0.02 0.02 0.03 0.02 0.03 0.02 0.01 0.01 0.01 0.01 0.01
0.00 0.00 0.00 0.00 0.00 0.00 0.00 0.00 0.00 0.00 0.00 0.00 0.00 0.00 0.00 0.00 0.00 0.00 0.00 0.00 0.00 0.00 0.02 0.02 0.03 0.04 0.04 0.03 0.03 0.04 0.04 0.04 0.03 0.03 0.04 0.04 0.03 0.03 0.02 0.02 0.02 0.02 0.01
0.00 0.00 0.00 0.00 0.00 0.00 0.00 0.00 0.00 0.00 0.00 0.00 0.00 0.00 0.00 0.00 0.00 0.00 0.00 0.00 0.00 0.01 0.02 0.04 0.05 0.06 0.05 0.05 0.05 0.05 0.04 0.03 0.03 0.04 0.04 0.04 0.05 0.04 0.04 0.03 0.02 0.03 0.02
0.00 0.00 0.00 0.00 0.00 0.00 0.00 0.00 0.00 0.00 0.00 0.00 0.00 0.00 0.00 0.00 0.00 0.00 0.00 0.00 0.01 0.02 0.03 0.04 0.05 0.06 0.06 0.07 0.06 0.06 0.06 0.07 0.07 0.05 0.05 0.06 0.06 0.06 0.05 0.03 0.03 0.02 0.04
0.00 0.00 0.00 0.00 0.00 0.00 0.00 0.00 0.00 0.00 0.00 0.00 0.00 0.00 0.00 0.00 0.00 0.00 0.00 0.00 0.01 0.02 0.03 0.05 0.05 0.05 0.07 0.08 0.07 0.08 0.06 0.05 0.05 0.05 0.05 0.06 0.06 0.07 0.09 0.06 0.06 0.07 0.05
0.00 0.00 0.00 0.00 0.00 0.00 0.00 0.00 0.00 0.00 0.00 0.00 0.00 0.00 0.00 0.00 0.00 0.00 0.00 0.00 0.01 0.02 0.04 0.06 0.06 0.05 0.06 0.07 0.08 0.08 0.08 0.08 0.08 0.08 0.06 0.07 0.07 0.08 0.09 0.10 0.09 0.09 0.09
0.00 0.00 0.00 0.00 0.00 0.00 0.00 0.00 0.00 0.00 0.00 0.00 0.00 0.00 0.00 0.00 0.00 0.00 0.00 0.00 0.00 0.02 0.04 0.08 0.09 0.09 0.12 0.14 0.11 0.11 0.09 0.09 0.08 0.07 0.07 0.07 0.08 0.10 0.10 0.08 0.07 0.07 0.09
0.00 0.00 0.00 0.00 0.00 0.00 0.00 0.00 0.00 0.00 0.00 0.00 0.00 0.00 0.00 0.00 0.00 0.00 0.00 0.00 0.00 0.01 0.02 0.05 0.07 0.08 0.11 0.13 0.11 0.15 0.14 0.12 0.12 0.13 0.13 0.07 0.08 0.11 0.10 0.10 0.08 0.09 0.09
0.00 0.00 0.00 0.00 0.00 0.00 0.00 0.00 0.00 0.00 0.00 0.00 0.00 0.00 0.00 0.00 0.00 0.00 0.00 0.00 0.00 0.01 0.02 0.03 0.06 0.12 0.16 0.11 0.12 0.14 0.18 0.20 0.16 0.14 0.15 0.14 0.10 0.09 0.10 0.11 0.10 0.14 0.15
0.00 0.00 0.00 0.00 0.00 0.00 0.00 0.00 0.00 0.00 0.00 0.00 0.00 0.00 0.00 0.00 0.00 0.00 0.00 0.00 0.00 0.01 0.01 0.02 0.04 0.06 0.10 0.10 0.14 0.17 0.20 0.18 0.17 0.19 0.19 0.19 0.15 0.12 0.13 0.14 0.14 0.14 0.15
0.00 0.00 0.00 0.00 0.00 0.00 0.00 0.00 0.00 0.00 0.00 0.00 0.00 0.00 0.00 0.00 0.00 0.00 0.00 0.00 0.00 0.00 0.01 0.01 0.02 0.02 0.04 0.06 0.12 0.15 0.15 0.13 0.15 0.17 0.15 0.13 0.12 0.15 0.14 0.13 0.12 0.13 0.11